Showing default

ARKTIKA-M 1, 47719

Orbit data source: Space-Track

ARKTIKA-M 1, 47719 is a payload satellite owned by Roskosmos (CIS) that was launched on Sun, 28 Feb 2021 UTC via a SOYUZ-2-1B launch vehicle from the Tyuratam Missile And Space Complex (TTMTR). Payload-class satellites include a variety of spacecraft equipped with specific instruments for various scientific and technological missions. These include communications satellites like Starlink; space stations such as the ISS; scientific satellites like the Hubble; Earth observation satellites from companies like Planet Labs, Umbra, and HawkEye 360; GPS; miniature CubeSats for education and research; and military/defense satellites.

Loading next visibility...
Identifier
47719, 2021-016A
Orbit
Molniya
Country
Flag of CISCIS
Related business
Manufacturer
Lavochkin
Mission
Operational Civil Weather
Bus & Motor
NAVIGATOR, Unknown motor
Mass
2,200 kg wet, ~2,000 kg dry
Launch date (UTC)
2021-02-28 (5 years ago)
Launch vehicle
SOYUZ-2-1B
Launch site
Tyuratam Missile And Space Complex (TTMTR)
Object type
Payload
Rocket body
Debris
Shape & HBR
Box + 2 Pan, 5.0 m
Radar Cross Section
14.304 m², Large (>1 m²)

Expand to show TLE details & history
Last TLE update: 5 days ago

TLE from 5 days ago
0 ARKTIKA-M 1
1 47719U 21016A   26168.49069990 -.00000210  00000-0  00000-0 0  9991
2 47719  63.2922  57.5948 7288529 269.9420  14.6012  2.00622504 38797
Epoch: 2026-06-17T11:46Z
TLE epoch observation values (Epoch: 2026-06-17T11:46:36.471Z)
Latitude
-0°
Longitude
-24.72033°
Altitude
6,117.318 km
Speed
6.985 km/s
True Right ascension
03h 50m 43s
True Declination
0° 00' 00"
Sunlit
Object was in daylight at epoch
Visualization orbit readout
Latitude
Unknown
Longitude
Unknown
Altitude
Unknown
Speed
Unknown
Apparent Right ascension
Unknown
Apparent Declination
Unknown
Sunlit
N/A
Visualization observer readout
Local Sidereal Time
21:25:52
Azimuth
Unknown
Elevation
Unknown
Doppler factor
Unknown
Orbital elements
Apogee altitude
39,530.078 km
Perigee altitude
821.943 km
Semi-major axis
26,554.147 km
Eccentricity
0.72885
Inclination
63.2922°
RAAN
57.5948°
Arg. of periapsis
269.942°
True anomaly
89.9485°
Mean anomaly
14.6012°
Eccentric anomaly
43.17443°
Mean motion
0.50159 °/min
Orbital period
717.72 mins
BSTAR
0
Loading maneuver chart data...
Computing Atmospheric mass density...
Loading historical data...
Loading historical data...
Loading historical data...
Loading historical data...
Loading historical data...
Loading historical data...
Loading historical data...
Other satellites on launch #16 in the year 2021 (2021-02-28 UTC)

Documentation

Showing up to 5 results
|